Voltar ao catálogo

STARLINK-37070

AtivoComunicaçõesVLEO
NORAD 68280·PAYLOAD·🇺🇸 United States

Lançado Mar 19, 2026 de Vandenberg Space Force Base

Loading…

Próximas Passagens (próximas 24 horas)

TLE

AtualizadoSource: CelesTrak SupGP

Época: Sep 14, 2026, 23:14 UTC

1 68280C 26055U   26257.96854167 -.00060386  00000+0 -17840-2 0  2573
2 68280  53.1571 155.3415 0001256  89.4252  27.6334 15.34423570    16

Acompanhe STARLINK-37070 em tempo real com AllMySat

Download on the App Store